Weather History for Farnborough, United Kingdom

Change the Weather History Date:

Tuesday, October 23, 2012

  Actual Average (EGLL) Record (EGLL)
Temperature  
Mean Temperature 53 °F -  
Max Temperature 55 °F 57 °F 68 °F (1996)
Min Temperature 51 °F 45 °F 37 °F (2003)
Degree Days  
Heating Degree Days 12    
Growing Degree Days 3 (Base 50)    
Moisture  
Dew Point 53 °F    
Average Humidity 99    
Maximum Humidity 100    
Minimum Humidity 94    
Precipitation  
Precipitation 0.01 in - - ()
Sea Level Pressure  
Sea Level Pressure 30.23 in    
Wind  
Wind Speed 6 mph ()    
Max Wind Speed 9 mph    
Max Gust Speed -    
Visibility 1.6 miles    
Events Fog    
Averages and records for this station are not official NWS values.
T = Trace of Precipitation, MM = Missing Value Source: Averaged Metar Reports

Daily Weather History Graph

Daily Weather History Graph

Search for Another Location

Airport:

Trip Planner

Search our weather history database for the weather conditions in past years. The results will help you decide how hot, cold, wet, or windy it might be!

Date:

Astronomy

Oct. 23, 2012 Rise Set
Actual Time 7:40 AM BST 5:52 PM BST
Civil Twilight 7:06 AM BST 6:27 PM BST
Nautical Twilight 6:27 AM BST 7:05 PM BST
Astronomical Twilight 5:49 AM BST 7:44 PM BST
Moon 3:04 PM BST (10/23) 12:35 AM BST (10/23)
Length of Visible Light 11h 20m
Length of Day
10h 12m
Waxing Gibbous, 64% of the Moon is Illuminated
Oct 23
Waxing Gibbous
Oct 29
Full
Nov 7
Last Quarter
Nov 13
New
Nov 20
First Quarter

Hourly Weather History & Observations

Time (BST) Temp. Dew Point Humidity Pressure Visibility Wind Dir Wind Speed Gust Speed Precip Events Conditions
6:50 AM 55 °F 55 °F 100% 30.22 in 0 mi NE 4.6 mph - -   Overcast
6:50 AM 55.4 °F 55.4 °F 100% 30.21 in 0.5 mi NE 5.8 mph - N/A Fog Fog
7:20 AM 55.4 °F 53.6 °F 94% 30.21 in 0.4 mi NNE 4.6 mph - N/A Fog Fog
7:50 AM 53.6 °F 53.6 °F 100% 30.24 in 0.4 mi North 6.9 mph - N/A Fog Fog
8:20 AM 53.6 °F 53.6 °F 100% 30.24 in 0.8 mi North 5.8 mph - N/A   Mostly Cloudy
8:50 AM 53.6 °F 53.6 °F 100% 30.24 in 0.9 mi NNE 6.9 mph - N/A   Mostly Cloudy
9:20 AM 51.8 °F 51.8 °F 100% 30.24 in 1.4 mi North 6.9 mph - N/A   Mostly Cloudy
9:50 AM 53 °F 53 °F 100% 30.26 in 2 mi North 4.6 mph - -   Overcast
9:50 AM 53.6 °F 53.6 °F 100% 30.24 in 1.9 mi North 5.8 mph - N/A   Mostly Cloudy
10:20 AM 51.8 °F 51.8 °F 100% 30.24 in - North 4.6 mph - N/A   Mostly Cloudy
11:20 AM 51.8 °F 51.8 °F 100% 30.27 in - North - - N/A   Mostly Cloudy
11:50 AM 51.8 °F 51.8 °F 100% 30.27 in 1.9 mi North 6.9 mph - N/A   Overcast
12:20 PM 51.8 °F 51.8 °F 100% 30.27 in 1.6 mi NNW 8.1 mph - N/A   Overcast
12:50 PM 53 °F 53 °F 99% 30.27 in 1 mi NNW 8.1 mph - -   Overcast
12:50 PM 51.8 °F 51.8 °F 100% 30.27 in 1.6 mi NNW 6.9 mph - N/A   Overcast
1:20 PM 51.8 °F 51.8 °F 100% 30.24 in 2.8 mi North 6.9 mph - N/A   Mostly Cloudy
1:50 PM 53.6 °F 51.8 °F 94% 30.24 in 3.1 mi North 6.9 mph - N/A   Mostly Cloudy
2:20 PM 53.6 °F 53.6 °F 100% 30.24 in 3.1 mi North 6.9 mph - N/A   Mostly Cloudy
2:50 PM 53.6 °F 53.6 °F 100% 30.24 in - North 8.1 mph - N/A   Mostly Cloudy
3:20 PM 53.6 °F 53.6 °F 100% 30.24 in 1.9 mi North 5.8 mph - N/A   Mostly Cloudy
3:50 PM 53.6 °F 53.6 °F 100% 30.21 in - NNE 6.9 mph - N/A   Mostly Cloudy
4:20 PM 53.6 °F 53.6 °F 100% 30.21 in 2.8 mi North 5.8 mph - N/A   Mostly Cloudy
4:50 PM 55.4 °F 53.6 °F 94% 30.21 in - NNE 6.9 mph - N/A   Overcast
5:20 PM 53.6 °F 53.6 °F 100% 30.21 in - North 6.9 mph - N/A   Overcast
5:50 PM 53.6 °F 53.6 °F 100% 30.21 in 1.6 mi NNE 5.8 mph - N/A   Overcast
6:20 PM 55.4 °F 53.6 °F 94% 30.21 in 1.8 mi NNE 6.9 mph - N/A   Overcast
6:50 PM 55 °F 55 °F 99% 30.23 in 2 mi NNE 6.9 mph - -   Overcast
6:50 PM 55.4 °F 53.6 °F 94% 30.21 in 1.8 mi NNE 8.1 mph - N/A   Overcast
7:20 PM 55.4 °F 55.4 °F 100% 30.21 in 1.6 mi NNE 5.8 mph - N/A   Overcast
7:50 PM 55.4 °F 53.6 °F 94% 30.24 in 1.5 mi NE 6.9 mph - N/A   Overcast
8:20 PM 55.4 °F 53.6 °F 94% 30.21 in 1.9 mi NE 9.2 mph - N/A   Overcast
8:50 PM 55.4 °F 53.6 °F 94% 30.24 in 1.4 mi NNE 9.2 mph - N/A   Overcast
9:20 PM 53.6 °F 53.6 °F 100% 30.24 in 1.3 mi NNE 9.2 mph - N/A   Overcast
9:50 PM 54 °F 54 °F 100% 30.23 in 2 mi NNE 8.1 mph - -   Overcast